Flag for U.S.A. Weather past 2 weeks in Carson City, Nevada, U.S.A.

Now
67 °F

Clear.


Feels Like: 67 °F
Forecast: 50 / 84 °F
Wind: No wind

Location: Reno Tahoe International Airport

Current Time: Sep 20, 2014 at 1:05:16 AM

Latest Report: Sep 19, 2014 at 11:55 PM


Visibility: 10 mi

Pressure: 29.90 "Hg

Humidity: 41%

Dew point: 42 °F

Location of Carson CityLocation

Historic Weather in Carson City — Graph

°F

Carson City temperature yesterday

Maximum temperature yesterday: 83 °F (at 3:55 PM)
Minimum temperature yesterday: 57 °F (at 5:55 AM)
Average temperature yesterday: 70 °F

Past Weeks' High & Low Weather Summary

 TemperatureHumidityPressure
High93 °F (Sep 15, 2:55 PM)62% (Sep 19, 7:55 AM)30.06 "Hg (Sep 19, 7:55 AM)
Low50 °F (Sep 9, 6:55 AM)8% (Sep 5, 1:55 PM)29.65 "Hg (Sep 17, 4:55 PM)
Average72 °F27%29.88 "Hg
* Reported Sep 4 11:55 PM — Sep 19 11:55 PM, Carson City, Weather by CustomWeather, © 2014

Note: Actual official high and low records may vary slightly from our data, if they occured in-between our weather recording intervals... More about our weather records

Advertising

Carson City weather history for previous 24 hours

 ConditionsComfort  
Time TempWeatherWind HumidityBarometerVisibility
11:55 PM
Sep 19
67 °FClear.No wind41%29.90 "Hg10 mi
10:55 PM69 °FPassing clouds.3 mph35%29.90 "Hg10 mi
9:55 PM72 °FPassing clouds.5 mph33%29.90 "Hg10 mi
8:55 PM75 °FPassing clouds.7 mph28%29.88 "Hg10 mi
7:55 PM76 °FPassing clouds.No wind26%29.87 "Hg10 mi
6:55 PM81 °FPassing clouds.7 mph21%29.85 "Hg10 mi
5:55 PM82 °FPassing clouds.8 mph20%29.84 "Hg10 mi
4:55 PM83 °FPassing clouds.7 mph21%29.84 "Hg10 mi
3:55 PM83 °FPassing clouds.6 mph22%29.85 "Hg10 mi
2:55 PM82 °FPassing clouds.13 mph23%29.86 "Hg10 mi
1:55 PM80 °FPassing clouds.No wind26%29.88 "Hg10 mi
12:55 PM77 °FPassing clouds.8 mph29%29.92 "Hg10 mi
11:55 AM73 °FPassing clouds.No wind34%29.94 "Hg10 mi
10:55 AM69 °FPassing clouds.7 mph39%29.96 "Hg10 mi
9:55 AM64 °FPassing clouds.5 mph49%29.98 "Hg10 mi
8:55 AM61 °FScattered clouds.No wind52%29.97 "Hg8 mi
7:55 AM57 °FScattered clouds.5 mph62%29.97 "Hg10 mi
6:55 AM57 °FPassing clouds.No wind60%29.97 "Hg8 mi
5:55 AM57 °FPassing clouds.6 mph60%29.93 "Hg5 mi
4:55 AM58 °FHaze.7 mph58%29.91 "Hg5 mi
3:55 AM60 °FHaze.No wind53%29.90 "Hg6 mi
2:55 AM62 °FHaze.5 mph52%29.89 "Hg5 mi
1:55 AM64 °FPassing clouds.3 mph47%29.88 "Hg10 mi
Weather by CustomWeather, © 2014

See weather overviewHow to use our weather pages